Home > Weather > Caguas > Past weeks

Flag for Puerto Rico Weather for the Past 2 Weeks in Caguas, Puerto Rico

Now
76 °F

More clouds than sun.


Feels Like: 76 °F
Forecast: 72 / 82 °F
Wind: 3 mph from North

Location: Luis Munoz Marin

Current Time: Apr 30, 2016 at 10:02:06 AM

Latest Report: Apr 30, 2016 at 8:56 AM


Visibility: 9 mi

Pressure: 29.93 "Hg

Humidity: 91%

Dew Point: 73 °F

Location of CaguasLocation

Historic Weather in Caguas — Graph

°F

Caguas Temperature Yesterday

Maximum temperature yesterday: 83 °F (at 8:56 AM)
Minimum temperature yesterday: 78 °F (at 11:56 AM)
Average temperature yesterday: 80 °F

High & Low Weather Summary for the Past Weeks

 TemperatureHumidityPressure
High91 °F (Apr 24, 12:56 PM)100% (Apr 22, 7:00 PM)30.07 "Hg (Apr 22, 7:00 PM)
Low74 °F (Apr 18, 5:56 PM)50% (Apr 24, 12:56 PM)29.82 "Hg (Apr 26, 4:56 PM)
Average80 °F79%29.93 "Hg
* Reported Apr 15 8:56 AM — Apr 30 8:56 AM, Caguas, Weather by CustomWeather, © 2016

Note: Actual official high and low records may vary slightly from our data, if they occured in-between our weather recording intervals... More about our weather records

Advertising

Caguas Weather History for the Previous 24 Hours

Scroll right to see more
 ConditionsComfort  
Time TempWeatherWind HumidityBarometerVisibility
8:56 AM
Sat, Apr 30
76 °FMore clouds than sun.3 mph91%29.93 "Hg9 mi
7:56 AM76 °FMostly cloudy.3 mph91%29.91 "Hg9 mi
6:56 AM77 °FMostly cloudy.5 mph90%29.92 "Hg9 mi
5:56 AM78 °FPassing clouds.No wind82%29.88 "Hg8 mi
4:56 AM78 °FPassing clouds.No wind82%29.87 "Hg10 mi
3:56 AM77 °FPassing clouds.3 mph94%29.87 "Hg10 mi
2:56 AM78 °FPassing clouds.No wind90%29.87 "Hg10 mi
1:56 AM78 °FPassing clouds.No wind90%29.89 "Hg10 mi
12:56 AM78 °FPassing clouds.No wind90%29.89 "Hg10 mi
11:56 PM
Fri, Apr 29
78 °FPassing clouds.No wind87%29.93 "Hg10 mi
10:56 PM78 °FPassing clouds.3 mph87%29.94 "Hg10 mi
9:56 PM79 °FPassing clouds.No wind82%29.94 "Hg10 mi
8:56 PM79 °FPassing clouds.No wind82%29.93 "Hg10 mi
7:56 PM79 °FPassing clouds.No wind79%29.91 "Hg10 mi
6:56 PM79 °FPartly sunny.No wind77%29.89 "Hg10 mi
5:56 PM80 °FBroken clouds.5 mph71%29.89 "Hg10 mi
4:56 PM80 °FBroken clouds.6 mph71%29.88 "Hg10 mi
3:56 PM80 °FBroken clouds.7 mph71%29.88 "Hg10 mi
2:56 PM81 °FBroken clouds.8 mph77%29.89 "Hg10 mi
1:56 PM79 °FMore clouds than sun.7 mph79%29.91 "Hg10 mi
12:56 PM78 °FBroken clouds.12 mph82%29.93 "Hg10 mi
11:56 AM78 °FLight rain. Broken clouds.15 mph93%29.95 "Hg10 mi
10:56 AM79 °FCloudy.9 mph88%29.95 "Hg10 mi
Weather by CustomWeather, © 2016

See weather overviewHow to use our weather pages